Lid_Strength_Index
2 1 1 1 1 0 0 1 2 2 2 2 2 2 2 2 3 4 4 2 4 6 5 4 4 5 5 5 7 6 8 8 8 9 9 9 10 8 9 8 9 9 10 10 10 11 12 6 6 9 8 6 5 5
2 1 1 1 0 0 1 2 2 2 2 2 2 2 2 2 3 3 6 3 2 6 6 2 1 1 2 3 4 5 7 7 6 9 9 10 12 9 8 10 6 10 8 9 8 9 6 5 6 5 5 5 5 5
2 2 1 1 1 1 2 2 2 2 2 2 2 2 2 2 2 3 4 4 4 6 6 4 4 1 0 1 0 5 4 4 5 4 8 8 12 9 12 10 10 6 5 7 8 6 6 5 5 4 4 4 4 4
2 1 1 1 1 2 2 2 2 2 2 2 2 2 2 2 2 3 4 3 3 5 8 5 1 2 0 0 1 1 2 2 3 4 8 9 10 7 10 10 10 8 8 9 7 7 6 5 5 4 4 3 4 4
2 2 1 1 3 3 2 2 2 2 2 2 2 2 2 2 2 3 2 2 2 5 8 6 2 1 1 1 2 1 2 4 4 6 8 10 7 8 6 7 9 8 9 11 12 6 6 6 4 3 4 4 4 4
2 2 2 3 3 2 2 2 2 2 2 3 2 2 2 2 2 3 6 2 1 2 7 9 2 3 2 1 2 2 3 4 5 6 7 5 5 7 10 10 8 6 6 6 8 5 4 4 3 3 4 4 4 4
2 2 2 3 3 2 2 2 1 2 2 2 2 2 2 3 3 4 5 2 1 2 6 8 7 3 2 2 3 3 2 3 4 6 7 6 6 6 8 10 7 7 7 5 5 4 6 4 5 4 4 3 3 3
2 2 3 3 3 2 2 2 2 2 2 2 2 2 3 3 3 4 1 1 1 4 5 9 8 5 3 5 5 3 5 5 5 6 5 6 6 6 9 6 5 5 5 5 5 4 4 3 3 4 3 3 4 4
2 3 3 3 3 2 2 2 2 1 2 2 2 2 3 3 5 3 1 1 1 3 8 8 10 10 4 5 4 5 4 9 5 7 7 7 9 11 8 7 7 6 6 5 4 4 4 5 5 4 4 4 4 5
2 3 3 3 2 2 2 2 2 1 2 2 2 4 6 4 2 2 4 6 6 5 6 9 6 9 5 6 7 7 6 9 11 8 5 9 10 7 6 5 5 5 5 4 5 7 5 6 6 5 4 4 4 4
2 3 3 3 2 2 2 2 2 3 3 3 4 4 3 2 4 7 9 9 8 9 7 6 7 8 4 8 9 7 8 8 13 10 10 11 12 8 5 5 4 4 3 3 3 3 4 4 5 5 4 4 3 3
2 2 3 3 3 2 2 2 2 3 0 2 1 2 3 5 7 10 11 11 12 11 7 8 7 6 5 4 7 8 10 10 14 8 11 13 10 7 6 6 6 4 4 4 3 3 3 4 4 4 4 4 4 3
3 3 3 3 3 2 1 2 3 3 3 1 3 5 6 6 11 10 12 10 10 7 6 6 7 6 5 5 7 8 11 11 8 11 13 11 8 7 7 6 5 4 4 3 3 3 3 4 3 4 4 3 3 3
3 3 3 3 3 3 2 2 2 3 3 4 5 12 8 8 7 7 8 7 6 5 5 6 7 7 7 8 8 11 9 8 11 12 12 9 8 7 6 5 5 5 4 4 3 3 3 3 3 3 3 3 3 4
3 2 3 3 3 3 2 2 2 2 2 4 5 11 7 5 4 4 4 4 4 4 5 6 7 7 8 10 9 9 12 14 12 13 9 7 7 7 7 5 5 5 5 4 4 4 4 4 4 3 3 2 2 3
3 3 1 2 2 3 3 2 1 0 2 3 4 6 5 5 5 4 4 5 3 4 4 5 8 10 10 9 11 12 13 14 11 8 6 5 5 6 6 5 5 5 4 4 4 4 4 4 4 4 3 3 3 3
3 -1 3 2 3 4 4 0 1 2 3 5 5 3 4 4 5 4 4 4 2 4 6 5 8 9 6 8 12 9 10 8 6 5 4 4 4 4 4 4 5 5 5 4 4 6 5 5 4 4 5 4 4 4
0 -1 1 3 3 1 0 1 2 3 5 4 5 4 3 3 4 4 3 2 3 4 5 6 5 7 8 9 8 6 5 4 3 4 4 3 3 3 3 3 3 3 3 3 3 3 5 6 6 6 5 4 4 3
1 1 2 4 3 1 2 2 1 5 4 3 3 3 2 3 2 2 2 2 2 2 4 5 6 7 7 6 5 5 4 4 4 3 3 2 2 2 2 2 2 2 2 3 4 5 4 3 4 4 4 5 5 5
3 3 3 3 3 2 3 3 1 4 5 3 3 3 3 3 2 3 3 3 3 4 5 7 7 5 5 4 3 3 3 3 3 4 4 3 2 1 2 2 2 2 2 2 2 3 3 4 4 4 4 4 4 5
1 1 2 1 1 2 3 3 5 4 3 4 3 3 5 3 4 4 4 3 4 5 6 4 4 4 2 2 2 2 2 2 3 4 4 4 3 2 3 3 2 3 4 4 4 3 3 3 3 3 3 5 6 6
-0 2 -0 0 2 2 3 2 3 3 4 6 5 4 6 6 5 4 3 4 5 4 3 4 3 3 3 3 2 2 1 1 1 3 3 3 3 3 3 3 3 4 4 4 4 4 4 3 3 3 2 3 3 3
1 1 1 1 4 6 7 1 4 4 6 5 5 6 6 6 5 3 5 5 4 3 2 3 2 2 2 2 1 1 1 1 2 3 3 3 3 3 3 3 3 4 4 4 4 4 4 5 4 4 3 3 3 4
3 2 4 4 4 7 3 5 4 4 4 6 6 7 6 5 4 6 7 5 4 2 3 3 3 3 3 2 3 2 2 1 2 2 2 3 4 3 3 3 3 3 4 4 4 4 4 4 5 4 4 4 4 5
7 7 6 10 4 5 6 6 6 6 7 6 6 6 6 4 7 7 8 6 5 3 2 2 2 2 2 3 2 2 0 2 3 3 3 2 3 3 4 3 3 4 4 4 5 5 5 4 4 4 4 5 5 5
10 5 9 5 5 6 6 7 7 6 6 6 6 4 4 6 9 11 9 6 5 3 3 2 2 2 3 2 2 2 2 1 2 3 2 2 3 4 4 5 5 5 3 3 4 4 5 4 4 4 4 4 6 4
9 6 4 3 4 4 5 4 4 6 6 7 6 6 6 9 9 7 5 4 3 2 1 1 1 2 2 2 1 1 0 1 1 3 2 2 2 3 3 4 5 4 3 3 3 4 4 4 4 4 4 3 3 3
5 4 6 5 4 4 5 5 6 6 5 4 5 7 8 9 9 4 3 2 1 1 1 1 1 1 2 2 2 2 2 2 2 2 2 2 2 3 2 3 2 4 3 3 3 3 3 3 4 4 4 4 4 3
6 4 4 5 5 5 5 5 5 4 3 4 5 6 6 4 2 2 2 1 1 1 2 2 2 1 2 2 2 2 3 3 4 5 5 5 5 4 3 3 3 3 2 3 7 4 3 3 3 3 3 3 3 3
6 3 5 5 6 6 4 3 4 2 2 2 2 3 4 5 2 1 1 1 2 2 2 2 1 1 3 3 3 3 3 3 4 5 5 5 5 4 3 3 3 2 2 2 3 3 4 3 4 3 4 4 3 3
4 4 4 5 5 4 3 3 2 2 2 3 2 3 4 4 2 1 2 1 1 1 2 2 2 2 3 3 4 4 5 4 4 4 4 4 4 4 3 3 2 2 2 3 3 3 4 4 4 4 5 5 5 5
5 5 5 6 5 3 2 3 3 4 3 4 4 3 4 4 7 4 2 1 1 2 3 2 2 5 5 4 4 4 6 5 5 5 4 4 4 4 3 3 2 2 3 3 3 3 3 4 4 4 4 4 4 4
4 4 4 5 5 4 4 4 4 5 4 5 4 4 4 3 6 3 0 0 1 1 1 2 4 5 4 4 5 5 7 7 8 9 9 9 10 7 4 3 3 2 3 3 3 3 4 4 4 4 4 5 5 4